User: anonymous   Login
Location: Bittelbronn
(48.4454°N, 8.5870°E)
Time: 07:25:40
(UTC+00:00)
Language:

COSMOS 2428 - Orbit

View from above orbital plane
View from above orbital plane
View from above satellite
View from above satellite

Ground track
Ground track

The orbit data is extracted from the following two-line orbital elements,

1 31792U 07029A   24203.89451329 -.00000053  00000-0 -30113-5 0  9995
2 31792  70.9381  13.9407 0009862 350.6448   9.4488 14.12705586879940
Epoch (UTC): 21 July 2024 21:28:05
Eccentricity: 0.0009862
inclination: 70.9381°
perigee height: 843 km
apogee height: 857 km
right ascension of ascending node: 13.9407°
argument of perigee: 350.6448°
revolutions per day: 14.12705586
mean anomaly at epoch: 9.4488°
orbit number at epoch: 87994

The dashed part of the orbit path shows where the satellite is in the earth's shadow,  

DLR